CDT,Max TemperatureF,Mean TemperatureF,Min TemperatureF,Max Dew PointF,MeanDew PointF,Min DewpointF,Max Humidity, Mean Humidity, Min Humidity, Max Sea Level PressureIn, Mean Sea Level PressureIn, Min Sea Level PressureIn, Max VisibilityMiles, Mean VisibilityMiles, Min VisibilityMiles, Max Wind SpeedMPH, Mean Wind SpeedMPH, Max Gust SpeedMPH,PrecipitationIn, CloudCover, Events, WindDirDegrees
2013-8-1,83,69,54,52,50,48,83,58,33,30.02,29.97,29.89,10,10,10,20,7,24,0.00,3,,298
2013-8-2,78,65,51,55,49,46,89,61,32,30.09,29.99,29.91,10,10,10,16,7,21,0.00,1,,349
2013-8-3,78,66,53,52,48,43,83,56,29,30.25,30.19,30.11,10,10,10,18,7,22,0.00,2,,16
2013-8-4,77,64,50,54,50,46,83,63,43,30.25,30.12,29.91,10,10,10,18,9,25,0.00,5,,150
2013-8-5,73,65,56,59,56,51,90,72,53,29.91,29.88,29.82,10,10,4,16,8,21,0.00,5,,300
2013-8-6,79,66,53,64,58,51,93,77,60,29.90,29.77,29.72,10,9,2,20,8,23,0.24,5,Rain,69
2013-8-7,75,63,50,54,49,46,89,64,38,30.03,29.99,29.91,10,10,10,12,4,21,T,2,,299
2013-8-8,77,66,54,55,52,46,86,62,38,30.05,30.02,29.99,10,10,7,15,6,20,0.01,4,,9
2013-8-9,71,60,48,53,49,44,93,69,44,30.16,30.10,30.05,10,10,9,20,9,24,0.00,5,,309
2013-8-10,75,62,49,54,51,46,93,69,44,30.21,30.15,30.06,10,10,10,12,3,15,0.00,3,,286
2013-8-11,78,66,54,58,54,50,84,62,40,30.11,30.07,30.04,10,10,10,15,5,18,T,4,Rain,8
2013-8-12,81,66,50,55,50,44,89,63,36,30.15,30.09,30.07,10,10,10,20,9,23,0.00,0,,333
2013-8-13,78,62,45,49,44,40,82,56,29,30.24,30.19,30.15,10,10,10,10,4,14,0.00,0,,1
2013-8-14,78,62,45,51,46,42,93,61,29,30.19,30.14,30.07,10,10,10,9,3,16,0.00,0,,121
2013-8-15,81,71,60,60,55,49,78,59,39,30.10,30.07,30.05,10,10,10,13,7,15,0.00,6,,203
2013-8-16,81,71,60,59,55,51,84,60,36,30.13,30.09,30.07,10,10,10,21,11,25,0.00,2,,191
2013-8-17,84,72,60,64,60,56,90,71,51,30.08,30.01,29.94,10,10,6,20,13,28,0.00,0,,172
2013-8-18,86,76,65,68,64,59,84,70,55,29.97,29.91,29.84,10,10,10,24,14,30,0.00,1,,182
2013-8-19,90,79,67,70,67,65,87,67,47,29.88,29.83,29.78,10,10,6,16,8,20,0.00,0,,181
2013-8-20,96,83,70,73,69,64,90,64,38,29.79,29.75,29.70,10,9,5,22,12,26,T,0,,182
2013-8-21,85,73,61,70,55,47,84,56,27,30.07,29.93,29.74,10,10,10,17,10,22,0.00,0,,8
2013-8-22,82,70,58,51,47,41,72,49,25,30.20,30.15,30.09,10,10,5,14,6,20,0.00,0,,35
2013-8-23,87,70,52,68,57,47,83,62,40,30.12,30.01,29.88,10,10,10,21,11,28,0.00,0,,146
2013-8-24,95,85,74,73,69,68,84,64,44,29.88,29.79,29.71,10,10,7,26,16,36,0.00,0,,167
2013-8-25,95,82,69,75,70,63,94,72,49,29.89,29.85,29.76,10,9,2,45,6,59,0.05,1,Rain,131
2013-8-26,93,81,69,75,71,63,94,71,48,29.91,29.86,29.81,10,8,2,18,6,25,T,2,,59
2013-8-27,94,79,64,70,65,61,93,66,39,29.91,29.85,29.80,10,10,10,9,4,13,0.00,0,,29
2013-8-28,91,83,74,71,68,66,82,63,44,29.97,29.93,29.90,10,10,10,14,6,18,0.00,0,,137
2013-8-29,91,80,69,73,70,66,94,73,52,29.93,29.87,29.80,10,10,6,24,10,30,0.09,2,Rain,39
2013-8-30,88,76,64,66,63,60,93,67,40,30.01,29.94,29.83,10,8,0,12,5,14,0.00,2,Fog,37
2013-8-31,88,75,61,67,62,54,87,65,43,29.85,29.77,29.68,10,10,10,29,10,39,T,0,,211